User: anonymous   Login
Location: Moscow
(55.7500°N, 37.5830°E)
Time: 21:52:26
(UTC+03:00)
Language:

SR - Orbit

View from above orbital plane
View from above orbital plane
View from above satellite
View from above satellite

Ground track
Ground track

The orbit data is extracted from the following two-line orbital elements,

1 00046U 60007B   21334.32089114  .00000095  00000-0  42126-4 0  9997
2 00046  66.6918  51.9215 0202440  95.6392 266.7838 14.49475926216041
Epoch (UTC): 30 November 2021 07:42:04
Eccentricity: 0.0202440
inclination: 66.6918°
perigee height: 583 km
apogee height: 871 km
right ascension of ascending node: 51.9215°
argument of perigee: 95.6392°
revolutions per day: 14.49475926
mean anomaly at epoch: 266.7838°
orbit number at epoch: 21604

The dashed part of the orbit path shows where the satellite is in the earth's shadow,  

DLR